Year,Month,Day,Hour,Minute,Value (Times are PST for temperature in C)
2014,07,28,08,38,19.80
2014,07,28,08,39,19.80
2014,07,28,08,40,19.80
2014,07,28,08,41,19.80
2014,07,28,08,42,19.90
2014,07,28,08,43,20.00
2014,07,28,08,44,20.10
2014,07,28,08,45,20.20
2014,07,28,08,46,20.20
2014,07,28,08,47,20.20
2014,07,28,08,48,20.30
2014,07,28,08,49,20.30
2014,07,28,08,50,20.30
2014,07,28,08,51,20.30
2014,07,28,08,52,20.30
2014,07,28,08,53,20.30
2014,07,28,08,54,20.30
2014,07,28,08,55,20.40
2014,07,28,08,56,20.40
2014,07,28,08,57,20.50
2014,07,28,08,58,20.60
2014,07,28,08,59,20.70
2014,07,28,09,00,20.80
2014,07,28,09,01,20.90
2014,07,28,09,02,21.00
2014,07,28,09,03,21.10
2014,07,28,09,04,21.20
2014,07,28,09,05,21.20
2014,07,28,09,06,21.20
2014,07,28,09,07,21.30
2014,07,28,09,08,21.30
2014,07,28,09,09,21.40
2014,07,28,09,10,21.50
2014,07,28,09,11,21.50
2014,07,28,09,12,21.60
2014,07,28,09,13,21.70
2014,07,28,09,14,21.70
2014,07,28,09,15,21.70
2014,07,28,09,16,21.60
2014,07,28,09,17,21.60
2014,07,28,09,18,21.50
2014,07,28,09,19,21.50
2014,07,28,09,20,21.40
2014,07,28,09,21,21.40
2014,07,28,09,22,21.30
2014,07,28,09,23,21.30
2014,07,28,09,24,21.20
2014,07,28,09,25,21.20
2014,07,28,09,26,21.20
2014,07,28,09,27,21.20
2014,07,28,09,28,21.30
2014,07,28,09,29,21.30
2014,07,28,09,30,21.40
2014,07,28,09,31,21.50
2014,07,28,09,32,21.60
2014,07,28,09,33,21.70
2014,07,28,09,34,21.80
2014,07,28,09,35,21.80
2014,07,28,09,36,21.80
2014,07,28,09,37,21.80
2014,07,28,09,38,21.80
2014,07,28,09,39,21.80
2014,07,28,09,40,21.80
2014,07,28,09,41,21.80
2014,07,28,09,42,21.80
2014,07,28,09,43,21.80
2014,07,28,09,44,21.90
2014,07,28,09,45,22.00
2014,07,28,09,46,22.10
2014,07,28,09,47,22.10
2014,07,28,09,48,22.20
2014,07,28,09,49,22.20
2014,07,28,09,50,22.30
2014,07,28,09,51,22.30
2014,07,28,09,52,22.40
2014,07,28,09,53,22.40
2014,07,28,09,54,22.50
2014,07,28,09,55,22.60
2014,07,28,09,56,22.70
2014,07,28,09,57,22.70
2014,07,28,09,58,22.70
2014,07,28,09,59,22.80
2014,07,28,10,00,22.80
2014,07,28,10,01,22.90
2014,07,28,10,02,23.00
2014,07,28,10,03,23.00
2014,07,28,10,04,23.10
2014,07,28,10,05,23.10
2014,07,28,10,06,23.20
2014,07,28,10,07,23.20
2014,07,28,10,08,23.30
2014,07,28,10,09,23.30
2014,07,28,10,10,23.30
2014,07,28,10,11,23.30
2014,07,28,10,12,23.20
2014,07,28,10,13,23.20
2014,07,28,10,14,23.20
2014,07,28,10,15,23.20
2014,07,28,10,16,23.30
2014,07,28,10,17,23.30
2014,07,28,10,18,23.30
2014,07,28,10,19,23.30
2014,07,28,10,20,23.20
2014,07,28,10,21,23.20
2014,07,28,10,22,23.00
2014,07,28,10,23,23.00
2014,07,28,10,24,23.00
2014,07,28,10,25,23.00
2014,07,28,10,26,23.10
2014,07,28,10,27,23.10
2014,07,28,10,28,23.20
2014,07,28,10,29,23.30
2014,07,28,10,30,23.30
2014,07,28,10,31,23.30
2014,07,28,10,32,23.40
2014,07,28,10,33,23.50
2014,07,28,10,34,23.50
2014,07,28,10,35,23.60
2014,07,28,10,36,23.60
2014,07,28,10,37,23.60
2014,07,28,10,38,23.60
2014,07,28,10,39,23.60
2014,07,28,10,40,23.70
2014,07,28,10,41,23.80
2014,07,28,10,42,23.80
2014,07,28,10,43,23.80
2014,07,28,10,44,23.90
2014,07,28,10,45,23.90
2014,07,28,10,46,23.90
2014,07,28,10,47,24.00
2014,07,28,10,48,24.10
2014,07,28,10,49,24.10
2014,07,28,10,50,24.20
2014,07,28,10,51,24.20
2014,07,28,10,52,24.30
2014,07,28,10,53,24.30
2014,07,28,10,54,24.30
2014,07,28,10,55,24.40
2014,07,28,10,56,24.40
2014,07,28,10,57,24.40
2014,07,28,10,58,24.40
2014,07,28,10,59,24.50
2014,07,28,11,00,24.60
2014,07,28,11,01,24.60
2014,07,28,11,02,24.70
2014,07,28,11,03,24.70
2014,07,28,11,04,24.70
2014,07,28,11,05,24.80
2014,07,28,11,06,24.90
2014,07,28,11,07,25.00
2014,07,28,11,08,25.10
2014,07,28,11,09,25.20
2014,07,28,11,10,25.30
2014,07,28,11,11,25.30
2014,07,28,11,12,25.40
2014,07,28,11,13,25.40
2014,07,28,11,14,25.30
2014,07,28,11,15,25.30
2014,07,28,11,16,25.40
2014,07,28,11,17,25.40
2014,07,28,11,18,25.40
2014,07,28,11,19,25.40
2014,07,28,11,20,25.50
2014,07,28,11,21,25.60
2014,07,28,11,22,25.60
2014,07,28,11,23,25.70
2014,07,28,11,24,25.70
2014,07,28,11,25,25.80
2014,07,28,11,26,25.90
2014,07,28,11,27,25.90
2014,07,28,11,28,26.00
2014,07,28,11,29,26.10
2014,07,28,11,30,26.20
2014,07,28,11,31,26.20
2014,07,28,11,32,26.10
2014,07,28,11,33,26.00
2014,07,28,11,34,26.00
2014,07,28,11,35,26.00
2014,07,28,11,36,26.00
2014,07,28,11,37,26.00
2014,07,28,11,38,26.00
2014,07,28,11,39,26.10
2014,07,28,11,40,26.10
2014,07,28,11,41,26.10
2014,07,28,11,42,26.10
2014,07,28,11,43,26.20
2014,07,28,11,44,26.20
2014,07,28,11,45,26.20
2014,07,28,11,46,26.30
2014,07,28,11,47,26.40
2014,07,28,11,48,26.60
2014,07,28,11,49,26.70
2014,07,28,11,50,26.80
2014,07,28,11,51,26.80
2014,07,28,11,52,26.90
2014,07,28,11,53,26.90
2014,07,28,11,54,26.90
2014,07,28,11,55,27.10
2014,07,28,11,56,27.20
2014,07,28,11,57,27.20
2014,07,28,11,58,27.30
2014,07,28,11,59,27.40
2014,07,28,12,00,27.40
2014,07,28,12,01,27.40
2014,07,28,12,02,27.50
2014,07,28,12,03,27.60
2014,07,28,12,04,27.60
2014,07,28,12,05,27.60
2014,07,28,12,06,27.60
2014,07,28,12,07,27.60
2014,07,28,12,08,27.60
2014,07,28,12,09,27.60
2014,07,28,12,10,27.60
2014,07,28,12,11,27.60
2014,07,28,12,12,27.60
2014,07,28,12,13,27.60
2014,07,28,12,14,27.50
2014,07,28,12,15,27.50
2014,07,28,12,16,27.60
2014,07,28,12,17,27.60
2014,07,28,12,18,27.60
2014,07,28,12,19,27.70
2014,07,28,12,20,27.70
2014,07,28,12,21,27.70
2014,07,28,12,22,27.80
2014,07,28,12,23,27.80
2014,07,28,12,24,27.80
2014,07,28,12,25,27.90
2014,07,28,12,26,28.00
2014,07,28,12,27,28.10
2014,07,28,12,28,28.20
2014,07,28,12,29,28.20
2014,07,28,12,30,28.20
2014,07,28,12,31,28.30
2014,07,28,12,32,28.40
2014,07,28,12,33,28.40
2014,07,28,12,34,28.40
2014,07,28,12,35,28.50
2014,07,28,12,36,28.50
2014,07,28,12,37,28.50
2014,07,28,12,38,28.50
2014,07,28,12,39,28.60
2014,07,28,12,40,28.50
2014,07,28,12,41,28.50
2014,07,28,12,42,28.60
2014,07,28,12,43,28.60
2014,07,28,12,44,28.70
2014,07,28,12,45,28.70
2014,07,28,12,46,28.80
2014,07,28,12,47,28.80
2014,07,28,12,48,28.80
2014,07,28,12,49,28.80
2014,07,28,12,50,28.80
2014,07,28,12,51,28.70
2014,07,28,12,52,28.70
2014,07,28,12,53,28.70
2014,07,28,12,54,28.80
2014,07,28,12,55,28.80
2014,07,28,12,56,28.80
2014,07,28,12,57,28.80
2014,07,28,12,58,28.80
2014,07,28,12,59,28.80
2014,07,28,13,00,28.90
2014,07,28,13,01,28.90
2014,07,28,13,02,28.90
2014,07,28,13,03,29.00
2014,07,28,13,04,29.00
2014,07,28,13,05,29.10
2014,07,28,13,06,29.10
2014,07,28,13,07,29.10
2014,07,28,13,08,29.10
2014,07,28,13,09,29.10
2014,07,28,13,10,29.10
2014,07,28,13,11,29.10
2014,07,28,13,12,29.20
2014,07,28,13,13,29.20
2014,07,28,13,14,29.20
2014,07,28,13,15,29.20
2014,07,28,13,16,29.20
2014,07,28,13,17,29.20
2014,07,28,13,18,29.20
2014,07,28,13,19,29.20
2014,07,28,13,20,29.20
2014,07,28,13,21,29.20
2014,07,28,13,22,29.20
2014,07,28,13,23,29.20
2014,07,28,13,24,29.20
2014,07,28,13,25,29.20
2014,07,28,13,26,29.20
2014,07,28,13,27,29.20
2014,07,28,13,28,29.30
2014,07,28,13,29,29.40
2014,07,28,13,30,29.50
2014,07,28,13,31,29.60
2014,07,28,13,32,29.70
2014,07,28,13,33,29.80
2014,07,28,13,34,29.90
2014,07,28,13,35,29.90
2014,07,28,13,36,30.00
2014,07,28,13,37,30.00
2014,07,28,13,38,30.00
2014,07,28,13,39,30.10
2014,07,28,13,40,30.00
2014,07,28,13,41,30.00
2014,07,28,13,42,30.00
2014,07,28,13,43,29.90
2014,07,28,13,44,29.90
2014,07,28,13,45,29.90
2014,07,28,13,46,29.90
2014,07,28,13,47,30.00
2014,07,28,13,48,30.00
2014,07,28,13,49,30.10
2014,07,28,13,50,30.20
2014,07,28,13,51,30.20
2014,07,28,13,52,30.30
2014,07,28,13,53,30.30
2014,07,28,13,54,30.30
2014,07,28,13,55,30.40
2014,07,28,13,56,30.40
2014,07,28,13,57,30.40
2014,07,28,13,58,30.50
2014,07,28,13,59,30.40
2014,07,28,14,00,30.40
2014,07,28,14,01,30.30
2014,07,28,14,02,30.30
2014,07,28,14,03,30.20
2014,07,28,14,04,30.20
2014,07,28,14,05,30.20
2014,07,28,14,06,30.20
2014,07,28,14,07,30.30
2014,07,28,14,08,30.30
2014,07,28,14,09,30.30
2014,07,28,14,10,30.40
2014,07,28,14,11,30.40
2014,07,28,14,12,30.50
2014,07,28,14,13,30.60
2014,07,28,14,14,30.60
2014,07,28,14,15,30.70
2014,07,28,14,16,30.80
2014,07,28,14,17,30.90
2014,07,28,14,18,31.00
2014,07,28,14,19,31.00
2014,07,28,14,20,31.10
2014,07,28,14,21,31.00
2014,07,28,14,22,30.90
2014,07,28,14,23,30.90
2014,07,28,14,24,31.00
2014,07,28,14,25,31.10
2014,07,28,14,26,31.10
2014,07,28,14,27,31.10
2014,07,28,14,28,31.10
2014,07,28,14,29,31.10
2014,07,28,14,30,31.20
2014,07,28,14,31,31.10
2014,07,28,14,32,31.10
2014,07,28,14,33,31.20
2014,07,28,14,34,31.20
2014,07,28,14,35,31.20
2014,07,28,14,36,31.20
2014,07,28,14,37,31.20
2014,07,28,14,38,31.20
2014,07,28,14,39,31.20
2014,07,28,14,40,31.20
2014,07,28,14,41,31.20
2014,07,28,14,42,31.20
2014,07,28,14,43,31.20
2014,07,28,14,44,31.20
2014,07,28,14,45,31.20
2014,07,28,14,46,31.30
2014,07,28,14,47,31.30
2014,07,28,14,48,31.40
2014,07,28,14,49,31.40
2014,07,28,14,50,31.40
2014,07,28,14,51,31.40
2014,07,28,14,52,31.40
2014,07,28,14,53,31.40
2014,07,28,14,54,31.30
2014,07,28,14,55,31.30
2014,07,28,14,56,31.30
2014,07,28,14,57,31.30
2014,07,28,14,58,31.30
2014,07,28,14,59,31.40
2014,07,28,15,00,31.40
2014,07,28,15,01,31.40
2014,07,28,15,02,31.40
2014,07,28,15,03,31.40
2014,07,28,15,04,31.40
2014,07,28,15,05,31.40
2014,07,28,15,06,31.40
2014,07,28,15,07,31.40
2014,07,28,15,08,31.40
2014,07,28,15,09,31.40
2014,07,28,15,10,31.30
2014,07,28,15,11,31.30
2014,07,28,15,12,31.30
2014,07,28,15,13,31.20
2014,07,28,15,14,31.10
2014,07,28,15,15,31.10
2014,07,28,15,16,31.10
2014,07,28,15,17,31.10
2014,07,28,15,18,31.10
2014,07,28,15,19,31.10
2014,07,28,15,20,31.00
2014,07,28,15,21,31.00
2014,07,28,15,22,31.00
2014,07,28,15,23,31.10
2014,07,28,15,24,31.00
2014,07,28,15,25,31.00
2014,07,28,15,26,31.00
2014,07,28,15,27,30.90
2014,07,28,15,28,30.80
2014,07,28,15,29,30.90
2014,07,28,15,30,30.90
2014,07,28,15,31,30.90
2014,07,28,15,32,30.90
2014,07,28,15,33,31.00
2014,07,28,15,34,31.10
2014,07,28,15,35,31.10
2014,07,28,15,36,31.20
2014,07,28,15,37,31.20
2014,07,28,15,38,31.20
2014,07,28,15,39,31.20
2014,07,28,15,40,31.30
2014,07,28,15,41,31.30
2014,07,28,15,42,31.20
2014,07,28,15,43,31.20
2014,07,28,15,44,31.20
2014,07,28,15,45,31.20
2014,07,28,15,46,31.10
2014,07,28,15,47,31.20
2014,07,28,15,48,31.20
2014,07,28,15,49,31.20
2014,07,28,15,50,31.10
2014,07,28,15,51,31.10
2014,07,28,15,52,31.10
2014,07,28,15,53,31.10
2014,07,28,15,54,31.20
2014,07,28,15,55,31.30
2014,07,28,15,56,31.30
2014,07,28,15,57,31.30
2014,07,28,15,58,31.20
2014,07,28,15,59,31.10
2014,07,28,16,00,31.10
2014,07,28,16,01,31.10
2014,07,28,16,02,31.10
2014,07,28,16,03,31.00
2014,07,28,16,04,30.90
2014,07,28,16,05,30.80
2014,07,28,16,06,30.80
2014,07,28,16,07,30.80
2014,07,28,16,08,30.80
2014,07,28,16,09,30.80
2014,07,28,16,10,30.80
2014,07,28,16,11,30.80
2014,07,28,16,12,30.90
2014,07,28,16,13,31.00
2014,07,28,16,14,31.00
2014,07,28,16,15,31.10
2014,07,28,16,16,31.20
2014,07,28,16,17,31.20
2014,07,28,16,18,31.30
2014,07,28,16,19,31.30
2014,07,28,16,20,31.40
2014,07,28,16,21,31.40
2014,07,28,16,22,31.40
2014,07,28,16,23,31.40
2014,07,28,16,24,31.30
2014,07,28,16,25,31.20
2014,07,28,16,26,31.10
2014,07,28,16,27,31.00
2014,07,28,16,28,31.00
2014,07,28,16,29,30.90
2014,07,28,16,30,30.80
2014,07,28,16,31,30.70
2014,07,28,16,32,30.70
2014,07,28,16,33,30.60
2014,07,28,16,34,30.50
2014,07,28,16,35,30.50
2014,07,28,16,36,30.50
2014,07,28,16,37,30.60
2014,07,28,16,38,30.60
2014,07,28,16,39,30.60
2014,07,28,16,40,30.70
2014,07,28,16,41,30.80
2014,07,28,16,42,30.90
2014,07,28,16,43,30.90
2014,07,28,16,44,30.90
2014,07,28,16,45,30.80
2014,07,28,16,46,30.70
2014,07,28,16,47,30.70
2014,07,28,16,48,30.60
2014,07,28,16,49,30.60
2014,07,28,16,50,30.60
2014,07,28,16,51,30.60
2014,07,28,16,52,30.70
2014,07,28,16,53,30.80
2014,07,28,16,54,30.80
2014,07,28,16,55,30.80
2014,07,28,16,56,30.70
2014,07,28,16,57,30.60
2014,07,28,16,58,30.60
2014,07,28,16,59,30.50
2014,07,28,17,00,30.40
2014,07,28,17,01,30.40
2014,07,28,17,02,30.40
2014,07,28,17,03,30.50
2014,07,28,17,04,30.50
2014,07,28,17,05,30.60
2014,07,28,17,06,30.60
2014,07,28,17,07,30.70
2014,07,28,17,08,30.80
2014,07,28,17,09,30.90
2014,07,28,17,10,31.00
2014,07,28,17,11,31.00
2014,07,28,17,12,30.90
2014,07,28,17,13,30.90
2014,07,28,17,14,30.80
2014,07,28,17,15,30.80
2014,07,28,17,16,30.70
2014,07,28,17,17,30.70
2014,07,28,17,18,30.70
2014,07,28,17,19,30.60
2014,07,28,17,20,30.50
2014,07,28,17,21,30.50
2014,07,28,17,22,30.50
2014,07,28,17,23,30.50
2014,07,28,17,24,30.50
2014,07,28,17,25,30.40
2014,07,28,17,26,30.40
2014,07,28,17,27,30.40
2014,07,28,17,28,30.40
2014,07,28,17,29,30.40
2014,07,28,17,30,30.50
2014,07,28,17,31,30.50
2014,07,28,17,32,30.60
2014,07,28,17,33,30.60
2014,07,28,17,34,30.60
2014,07,28,17,35,30.60
2014,07,28,17,36,30.60
2014,07,28,17,37,30.60
2014,07,28,17,38,30.60
2014,07,28,17,39,30.60
2014,07,28,17,40,30.60
2014,07,28,17,41,30.70
2014,07,28,17,42,30.70
2014,07,28,17,43,30.70
2014,07,28,17,44,30.60
2014,07,28,17,45,30.60
2014,07,28,17,46,30.60
2014,07,28,17,47,30.50
2014,07,28,17,48,30.50
2014,07,28,17,49,30.40
2014,07,28,17,50,30.40
2014,07,28,17,51,30.40
2014,07,28,17,52,30.40
2014,07,28,17,53,30.40
2014,07,28,17,54,30.50
2014,07,28,17,55,30.50
2014,07,28,17,56,30.60
2014,07,28,17,57,30.60
2014,07,28,17,58,30.70
2014,07,28,17,59,30.80
2014,07,28,18,00,30.80
2014,07,28,18,01,30.70
2014,07,28,18,02,30.70
2014,07,28,18,03,30.60
2014,07,28,18,04,30.50
2014,07,28,18,05,30.40
2014,07,28,18,06,30.40
2014,07,28,18,07,30.30
2014,07,28,18,08,30.30
2014,07,28,18,09,30.20
2014,07,28,18,10,30.10
2014,07,28,18,11,30.10
2014,07,28,18,12,30.10
2014,07,28,18,13,30.10
2014,07,28,18,14,30.10
2014,07,28,18,15,30.10
2014,07,28,18,16,30.10
2014,07,28,18,17,30.10
2014,07,28,18,18,30.10
2014,07,28,18,19,30.00
2014,07,28,18,20,30.00
2014,07,28,18,21,29.90
2014,07,28,18,22,29.90
2014,07,28,18,23,29.80
2014,07,28,18,24,29.80
2014,07,28,18,25,29.80
2014,07,28,18,26,29.80
2014,07,28,18,27,29.80
2014,07,28,18,28,29.70
2014,07,28,18,29,29.70
2014,07,28,18,30,29.70
2014,07,28,18,31,29.60
2014,07,28,18,32,29.60
2014,07,28,18,33,29.60
2014,07,28,18,34,29.60
2014,07,28,18,35,29.70
2014,07,28,18,36,29.70
2014,07,28,18,37,29.60
2014,07,28,18,38,29.60
2014,07,28,18,39,29.70
2014,07,28,18,40,29.70
2014,07,28,18,41,29.70
2014,07,28,18,42,29.60
2014,07,28,18,43,29.60
2014,07,28,18,44,29.60
2014,07,28,18,45,29.50
2014,07,28,18,46,29.50
2014,07,28,18,47,29.40
2014,07,28,18,48,29.40
2014,07,28,18,49,29.40
2014,07,28,18,50,29.40
2014,07,28,18,51,29.30
2014,07,28,18,52,29.30
2014,07,28,18,53,29.20
2014,07,28,18,54,29.20
2014,07,28,18,55,29.20
2014,07,28,18,56,29.10
2014,07,28,18,57,29.10
2014,07,28,18,58,29.10
2014,07,28,18,59,29.20
2014,07,28,19,00,29.20
2014,07,28,19,01,29.30
2014,07,28,19,02,29.30
2014,07,28,19,03,29.30
2014,07,28,19,04,29.30
2014,07,28,19,05,29.30
2014,07,28,19,06,29.30
2014,07,28,19,07,29.40
2014,07,28,19,08,29.30
2014,07,28,19,09,29.20
2014,07,28,19,10,29.10
2014,07,28,19,11,29.10
2014,07,28,19,12,29.00
2014,07,28,19,13,29.00
2014,07,28,19,14,28.90
2014,07,28,19,15,28.90
2014,07,28,19,16,28.90
2014,07,28,19,17,28.90
2014,07,28,19,18,28.90
2014,07,28,19,19,28.90
2014,07,28,19,20,28.80
2014,07,28,19,21,28.80
2014,07,28,19,22,28.80
2014,07,28,19,23,28.80
2014,07,28,19,24,28.70
2014,07,28,19,25,28.70
2014,07,28,19,26,28.70
2014,07,28,19,27,28.70
2014,07,28,19,28,28.70
2014,07,28,19,29,28.70
2014,07,28,19,30,28.60
2014,07,28,19,31,28.60
2014,07,28,19,32,28.60
2014,07,28,19,33,28.50
2014,07,28,19,34,28.50
2014,07,28,19,35,28.50
2014,07,28,19,36,28.50
2014,07,28,19,37,28.40
2014,07,28,19,38,28.40
2014,07,28,19,39,28.40
2014,07,28,19,40,28.30
2014,07,28,19,41,28.30
2014,07,28,19,42,28.30
2014,07,28,19,43,28.20
2014,07,28,19,44,28.20
2014,07,28,19,45,28.10
2014,07,28,19,46,28.10
2014,07,28,19,47,28.00
2014,07,28,19,48,27.90
2014,07,28,19,49,27.90
2014,07,28,19,50,27.80
2014,07,28,19,51,27.80
2014,07,28,19,52,27.80
2014,07,28,19,53,27.80
2014,07,28,19,54,27.80
2014,07,28,19,55,27.80
2014,07,28,19,56,27.80
2014,07,28,19,57,27.80
2014,07,28,19,58,27.80
2014,07,28,19,59,27.80
2014,07,28,20,00,27.80
2014,07,28,20,01,27.80
2014,07,28,20,02,27.70
2014,07,28,20,03,27.70
2014,07,28,20,04,27.70
2014,07,28,20,05,27.60
2014,07,28,20,06,27.60
2014,07,28,20,07,27.60
2014,07,28,20,08,27.50
2014,07,28,20,09,27.50
2014,07,28,20,10,27.40
2014,07,28,20,11,27.40
2014,07,28,20,12,27.40
2014,07,28,20,13,27.40
2014,07,28,20,14,27.30
2014,07,28,20,15,27.30
2014,07,28,20,16,27.20
2014,07,28,20,17,27.20
2014,07,28,20,18,27.10
2014,07,28,20,19,27.00
2014,07,28,20,20,27.00
2014,07,28,20,21,26.90
2014,07,28,20,22,26.90
2014,07,28,20,23,26.90
2014,07,28,20,24,26.80
2014,07,28,20,25,26.80
2014,07,28,20,26,26.80
2014,07,28,20,27,26.80
2014,07,28,20,28,26.70
2014,07,28,20,29,26.70
2014,07,28,20,30,26.70
2014,07,28,20,31,26.70
2014,07,28,20,32,26.70
2014,07,28,20,33,26.70
2014,07,28,20,34,26.60
2014,07,28,20,35,26.60
2014,07,28,20,36,26.60
2014,07,28,20,37,26.60
2014,07,28,20,38,26.60
2014,07,28,20,39,26.50
2014,07,28,20,40,26.50
2014,07,28,20,41,26.50
2014,07,28,20,42,26.40
2014,07,28,20,43,26.40
2014,07,28,20,44,26.40
2014,07,28,20,45,26.40
2014,07,28,20,46,26.30
2014,07,28,20,47,26.30
2014,07,28,20,48,26.20
2014,07,28,20,49,26.20
2014,07,28,20,50,26.10
2014,07,28,20,51,26.00
2014,07,28,20,52,25.90
2014,07,28,20,53,25.90
2014,07,28,20,54,25.80
2014,07,28,20,55,25.80
2014,07,28,20,56,25.80
2014,07,28,20,57,25.70
2014,07,28,20,58,25.70
2014,07,28,20,59,25.60
2014,07,28,21,00,25.60
2014,07,28,21,01,25.50
2014,07,28,21,02,25.40
2014,07,28,21,03,25.40
2014,07,28,21,04,25.30
2014,07,28,21,05,25.20
2014,07,28,21,06,25.20
2014,07,28,21,07,25.10
2014,07,28,21,08,25.10
2014,07,28,21,09,25.00
2014,07,28,21,10,24.90
2014,07,28,21,11,24.90
2014,07,28,21,12,24.80
2014,07,28,21,13,24.80
2014,07,28,21,14,24.70
2014,07,28,21,15,24.70
2014,07,28,21,16,24.60
2014,07,28,21,17,24.60
2014,07,28,21,18,24.50
2014,07,28,21,19,24.40
2014,07,28,21,20,24.40
2014,07,28,21,21,24.30
2014,07,28,21,22,24.30
2014,07,28,21,23,24.20
2014,07,28,21,24,24.20
2014,07,28,21,25,24.10
2014,07,28,21,26,24.10
2014,07,28,21,27,24.00
2014,07,28,21,28,24.00
2014,07,28,21,29,23.90
2014,07,28,21,30,23.90
2014,07,28,21,31,23.80
2014,07,28,21,32,23.80
2014,07,28,21,33,23.70
2014,07,28,21,34,23.70
2014,07,28,21,35,23.60
2014,07,28,21,36,23.60
2014,07,28,21,37,23.60
2014,07,28,21,38,23.50
2014,07,28,21,39,23.50
2014,07,28,21,40,23.40
2014,07,28,21,41,23.40
2014,07,28,21,42,23.40
2014,07,28,21,43,23.30
2014,07,28,21,44,23.30
2014,07,28,21,45,23.20
2014,07,28,21,46,23.20
2014,07,28,21,47,23.10
2014,07,28,21,48,23.10
2014,07,28,21,49,23.00
2014,07,28,21,50,23.00
2014,07,28,21,51,22.90
2014,07,28,21,52,22.90
2014,07,28,21,53,22.80
2014,07,28,21,54,22.80
2014,07,28,21,55,22.80
2014,07,28,21,56,22.70
2014,07,28,21,57,22.70
2014,07,28,21,58,22.70
2014,07,28,21,59,22.70
2014,07,28,22,00,22.60
2014,07,28,22,01,22.60
2014,07,28,22,02,22.60
2014,07,28,22,03,22.60
2014,07,28,22,04,22.50
2014,07,28,22,05,22.50
2014,07,28,22,06,22.50
2014,07,28,22,07,22.40
2014,07,28,22,08,22.40
2014,07,28,22,09,22.40
2014,07,28,22,10,22.30
2014,07,28,22,11,22.30
2014,07,28,22,12,22.30
2014,07,28,22,13,22.20
2014,07,28,22,14,22.20
2014,07,28,22,15,22.10
2014,07,28,22,16,22.10
2014,07,28,22,17,22.10
2014,07,28,22,18,22.10
2014,07,28,22,19,22.00
2014,07,28,22,20,22.00
2014,07,28,22,21,21.90
2014,07,28,22,22,21.90
2014,07,28,22,23,21.80
2014,07,28,22,24,21.80
2014,07,28,22,25,21.80
2014,07,28,22,26,21.70
2014,07,28,22,27,21.70
2014,07,28,22,28,21.70
2014,07,28,22,29,21.60
2014,07,28,22,30,21.60
2014,07,28,22,31,21.50
2014,07,28,22,32,21.50
2014,07,28,22,33,21.40
2014,07,28,22,34,21.40
2014,07,28,22,35,21.40
2014,07,28,22,36,21.30
2014,07,28,22,37,21.30
2014,07,28,22,38,21.30
2014,07,28,22,39,21.30
2014,07,28,22,40,21.30
2014,07,28,22,41,21.20
2014,07,28,22,42,21.20
2014,07,28,22,43,21.20
2014,07,28,22,44,21.20
2014,07,28,22,45,21.20
2014,07,28,22,46,21.20
2014,07,28,22,47,21.10
2014,07,28,22,48,21.10
2014,07,28,22,49,21.10
2014,07,28,22,50,21.00
2014,07,28,22,51,20.90
2014,07,28,22,52,20.90
2014,07,28,22,53,20.90
2014,07,28,22,54,20.90
2014,07,28,22,55,20.80
2014,07,28,22,56,20.80
2014,07,28,22,57,20.80
2014,07,28,22,58,20.80
2014,07,28,22,59,20.80
2014,07,28,23,00,20.80
2014,07,28,23,01,20.80
2014,07,28,23,02,20.80
2014,07,28,23,03,20.80
2014,07,28,23,04,20.70
2014,07,28,23,05,20.70
2014,07,28,23,06,20.70
2014,07,28,23,07,20.70
2014,07,28,23,08,20.60
2014,07,28,23,09,20.60
2014,07,28,23,10,20.60
2014,07,28,23,11,20.50
2014,07,28,23,12,20.50
2014,07,28,23,13,20.40
2014,07,28,23,14,20.30
2014,07,28,23,15,20.30
2014,07,28,23,16,20.20
2014,07,28,23,17,20.10
2014,07,28,23,18,20.00
2014,07,28,23,19,19.90
2014,07,28,23,20,19.90
2014,07,28,23,21,19.80
2014,07,28,23,22,19.70
2014,07,28,23,23,19.60
2014,07,28,23,24,19.60
2014,07,28,23,25,19.50
2014,07,28,23,26,19.50
2014,07,28,23,27,19.40
2014,07,28,23,28,19.40
2014,07,28,23,29,19.40
2014,07,28,23,30,19.30
2014,07,28,23,31,19.30
2014,07,28,23,32,19.30
2014,07,28,23,33,19.30
2014,07,28,23,34,19.20
2014,07,28,23,35,19.20
2014,07,28,23,36,19.20
2014,07,28,23,37,19.20
2014,07,28,23,38,19.20
2014,07,28,23,39,19.10
2014,07,28,23,40,19.10
2014,07,28,23,41,19.10
2014,07,28,23,42,19.10
2014,07,28,23,43,19.00
2014,07,28,23,44,19.00
2014,07,28,23,45,18.90
2014,07,28,23,46,18.90
2014,07,28,23,47,18.90
2014,07,28,23,48,18.80
2014,07,28,23,49,18.80
2014,07,28,23,50,18.80
2014,07,28,23,51,18.70
2014,07,28,23,52,18.70
2014,07,28,23,53,18.70
2014,07,28,23,54,18.70
2014,07,28,23,55,18.60
2014,07,28,23,56,18.60
2014,07,28,23,57,18.60
2014,07,28,23,58,18.60
2014,07,28,23,59,18.60
